STARLINK-2003 (47598 NORAD) Tracking and Keplerian Element Data

This shows tracking and keplerian element data for the satellite.

Feedback or suggestion? Click here.




ElementValue
Catalog47598
NameSTARLINK-2003
Epoch Orbit1076
Epoch Day99.91667824
Epoch Year2021
RAAN167.3125
Inclination53.0524
Eccentricity0.0003949
Argument of Perigee10.2046
Mean Anonmoly148.4634
Mean Motion15.62667653
Decay Rate0.00018891
L11 47598U 21009BC 21099.91667824 .00018891 00000-0 21234-3 0 9991
L22 47598 53.0524 167.3125 0003949 10.2046 148.4634 15.62667653 10768

Live tracking and technical data element details for STARLINK-2003 (NORAD 47598). STARLINK-2003 can be tracked NOW for your location showing map with azimuth and elevation plus other details from your city location.

Track the satellite on the map from your city or location and see movement details for azimuth, elevation, latitude, longitude, range, height, and movement on the map or in text.







IsCatalogInMostPopularTable: catalog: 47598, numindb: 17
Update: records affected: 1



GetName: 47598 STARLINK-2003

Hit Count: updated at: Sat, 10 Apr 2021 18:35:06 GMT